Terminal Aerodrome Forecast
Issued by NWS

Home | Current Version | Previous Version | Text Only | Print | Product List | Glossary On
Versions: 1 2 3 4 5 6 7 8 9 10 11 12
000
FTUS45 KRIW 281700
TAFWRL
TAF
KWRL 281721Z 2818/2918 VRB05KT P6SM SCT120 BKN250
     FM282300 VRB10G20KT P6SM VCSH SCT100 BKN150
     FM290400 VRB06KT P6SM VCSH BKN100
     FM291400 31006KT P6SM VCSH BKN050=

USA.gov is the U.S. government's official web portal to all federal, state and local government web resources and services.